TimeCST,TemperatureF,Dew PointF,Humidity,Sea Level PressureIn,VisibilityMPH,Wind Direction,Wind SpeedMPH,Gust SpeedMPH,PrecipitationIn,Events,Conditions,WindDirDegrees,DateUTC
12:53 AM,36.0,32.0,86,30.02,10.0,SSE,5.8,-,0.01,Rain,Light Rain,160,2012-11-08 06:53:00
1:53 AM,36.0,33.1,89,30.02,10.0,SE,4.6,-,0.00,,Overcast,140,2012-11-08 07:53:00
2:53 AM,36.0,33.1,89,29.99,10.0,SSE,6.9,-,N/A,,Overcast,150,2012-11-08 08:53:00
3:53 AM,36.0,33.1,89,29.96,10.0,SSE,8.1,-,0.00,,Overcast,150,2012-11-08 09:53:00
4:53 AM,36.0,32.0,86,29.94,10.0,SSE,6.9,-,N/A,,Scattered Clouds,150,2012-11-08 10:53:00
5:53 AM,36.0,30.9,82,29.93,10.0,South,8.1,-,N/A,,Clear,170,2012-11-08 11:53:00
6:53 AM,35.1,30.0,82,29.93,10.0,South,5.8,-,N/A,,Clear,180,2012-11-08 12:53:00
7:53 AM,35.1,30.0,82,29.94,10.0,South,3.5,-,N/A,,Clear,190,2012-11-08 13:53:00
8:53 AM,37.0,30.9,79,29.94,10.0,Variable,6.9,-,N/A,,Clear,0,2012-11-08 14:53:00
9:53 AM,39.0,30.9,73,29.90,10.0,South,9.2,17.3,N/A,,Partly Cloudy,170,2012-11-08 15:53:00
10:53 AM,43.0,32.0,65,29.92,10.0,SSW,8.1,-,N/A,,Clear,210,2012-11-08 16:53:00
11:53 AM,46.0,33.1,61,29.89,10.0,Variable,5.8,-,N/A,,Partly Cloudy,0,2012-11-08 17:53:00
12:53 PM,46.0,33.1,61,29.92,10.0,West,5.8,-,N/A,,Mostly Cloudy,260,2012-11-08 18:53:00
1:53 PM,46.0,33.1,61,29.93,10.0,West,9.2,-,N/A,,Overcast,280,2012-11-08 19:53:00
2:53 PM,44.1,34.0,68,29.96,10.0,NW,10.4,-,N/A,,Overcast,310,2012-11-08 20:53:00
3:53 PM,42.1,35.1,76,29.99,10.0,NW,12.7,-,N/A,,Overcast,310,2012-11-08 21:53:00
4:16 PM,39.2,35.6,87,29.96,10.0,NW,15.0,-,N/A,,Overcast,310,2012-11-08 22:16:00
4:44 PM,39.2,33.8,81,29.97,10.0,NW,5.8,-,N/A,,Overcast,320,2012-11-08 22:44:00
4:53 PM,39.9,34.0,79,30.02,10.0,NNW,3.5,-,N/A,,Overcast,330,2012-11-08 22:53:00
5:53 PM,39.9,34.0,79,30.04,10.0,NNW,4.6,-,N/A,,Overcast,330,2012-11-08 23:53:00
6:53 PM,39.9,35.1,83,30.05,10.0,NNW,6.9,-,N/A,,Overcast,340,2012-11-09 00:53:00
7:04 PM,39.2,35.6,87,30.01,10.0,NNW,6.9,-,N/A,,Overcast,330,2012-11-09 01:04:00
7:27 PM,39.2,35.6,87,30.02,9.0,NNW,8.1,-,N/A,,Overcast,330,2012-11-09 01:27:00
7:53 PM,39.9,37.0,89,30.07,6.0,NNW,8.1,-,N/A,,Overcast,340,2012-11-09 01:53:00
8:40 PM,39.2,35.6,87,30.03,7.0,North,5.8,-,0.00,,Overcast,360,2012-11-09 02:40:00
8:53 PM,39.0,36.0,89,30.09,9.0,North,6.9,-,0.00,,Overcast,360,2012-11-09 02:53:00
9:19 PM,39.2,35.6,87,30.05,10.0,North,6.9,-,N/A,,Overcast,350,2012-11-09 03:19:00
9:53 PM,39.0,35.1,86,30.10,10.0,North,5.8,-,N/A,,Overcast,10,2012-11-09 03:53:00
10:53 PM,37.9,33.1,83,30.11,10.0,North,11.5,-,N/A,,Overcast,360,2012-11-09 04:53:00
11:25 PM,37.4,32.0,81,30.07,10.0,North,8.1,-,N/A,,Overcast,10,2012-11-09 05:25:00
11:53 PM,37.0,30.9,79,30.12,10.0,North,6.9,-,N/A,,Overcast,10,2012-11-09 05:53:00